Preview of NWS' New Version of Forecast
This preview is not operational and should not be used for support decisions.

Regional Weather Roundup (RWR)

Issued by National Weather Service (NWS)

                            
000
ASPQ40 PGUM 250510
RWRPQ 
WEATHER ROUNDUP FOR THE MARIANAS AND MICRONESIA
NATIONAL WEATHER SERVICE TIYAN GU
300 PM CHST SUN AUG 25 2019

GUZ001>004-250600-
MARIANA ISLANDS-
  
CITY           SKY/WX    TMP DP  RH WIND       PRES   REMARKS
GUAM AIRPORT   MOSUNNY   88  77  70 SE10G18   29.78F HX 100           
ANDERSEN AFB   PTSUNNY   86  77  74 S13G20    29.79F HX  97           
ROTA AIRPORT   PTSUNNY   84  73  70 SE13      29.75F HX  91           
TINIAN AP      PTSUNNY   88  75  66 SE9       29.78R HX  97           
SAIPAN AP      SUNNY     88  77  70 SE15      29.79S HX 100           

$$

PMZ161-250600-
REPUBLIC OF PALAU-
  
CITY           SKY/WX    TMP DP  RH WIND       PRES   REMARKS
KOROR AP       CLOUDY    81  75  83 NW13G22   29.74F                  
KOROR WSO      NOT AVBL                                               

$$

PMZ171>174-250600-
FEDERATED STATES OF MICRONESIA-
  
CITY           SKY/WX    TMP DP  RH WIND       PRES   REMARKS
YAP AIRPORT    PTSUNNY   84  77  79 SW8       29.68F HX  94           
CHUUK AP       PTSUNNY   88  79  74 VRB7      29.78F HX 102           
POHNPEI AP     NOT AVBL                                               
POHNPEI WSO    PTSUNNY   88  79  74 NE7       29.81S HX 102           
KOSRAE AP      NOT AVBL                                               

$$

PMZ181-250600-
REPUBLIC OF THE MARSHALL ISLANDS-
  
CITY           SKY/WX    TMP DP  RH WIND       PRES   REMARKS
KWAJALEIN AP   SUNNY     86  79  79 E8        29.77R HX  99           
MAJURO AP      PTSUNNY   86  77  74 E10       29.77R HX  97           
MAJURO WSO     MOSUNNY   84  77  79 E8        29.75R HX  94           

$$